CHH525 ZSPD-ZPPP

Flight info

Callsign CHH525
Flight time N/A
Altitude 34100
Route NXD W131 AKDIM A470 SAGNU W132 OREXA DCT P395 DCT AVDIP W226 IPMUG W611 BIVAV W138 DYG W140 HUY A581 QNX W136 XISLI
Aircraft B38M/M-SDE1FGHILORVWXY/HB1

Departure

Time N/A
Airport Shanghai Pudong International Airport (ZSPD)

Arrival

Time 2026-05-05 13:36
Airport Kunming Changshui International Airport (ZPPP)
Time Latitude Longitude Altitude Speed Heading
2026-05-05 13:02 25.77923 102.78491 12149 ft 275 kts 229°
2026-05-05 13:03 25.76577 102.77003 11926 ft 272 kts 228°
2026-05-05 13:03 25.75249 102.75527 11690 ft 269 kts 228°
2026-05-05 13:03 25.73796 102.74217 11379 ft 270 kts 216°
2026-05-05 13:03 25.72210 102.73108 11146 ft 270 kts 216°
2026-05-05 13:04 25.70618 102.71988 10960 ft 272 kts 216°
2026-05-05 13:04 25.69026 102.70866 10822 ft 269 kts 216°
2026-05-05 13:04 25.67468 102.69771 10805 ft 270 kts 214°
2026-05-05 13:04 25.65747 102.68917 10827 ft 273 kts 204°
2026-05-05 13:05 25.63922 102.68203 10831 ft 275 kts 204°
2026-05-05 13:05 25.62096 102.67574 10812 ft 277 kts 192°
2026-05-05 13:05 25.60193 102.67738 10828 ft 286 kts 165°
2026-05-05 13:05 25.58478 102.68919 10776 ft 299 kts 135°
2026-05-05 13:06 25.57470 102.70945 10827 ft 307 kts 109°
2026-05-05 13:06 25.56981 102.73268 10812 ft 312 kts 103°
2026-05-05 13:06 25.56658 102.75641 10810 ft 313 kts 94°
2026-05-05 13:06 25.56381 102.78023 10806 ft 312 kts 110°
2026-05-05 13:07 25.55663 102.80283 10846 ft 313 kts 110°
2026-05-05 13:07 25.55042 102.82593 10814 ft 313 kts 108°
2026-05-05 13:07 25.54472 102.84913 10829 ft 312 kts 107°
2026-05-05 13:07 25.53930 102.87244 10843 ft 314 kts 106°
2026-05-05 13:08 25.53397 102.89594 10836 ft 315 kts 106°
2026-05-05 13:08 25.52873 102.91944 10789 ft 314 kts 106°
2026-05-05 13:08 25.52354 102.94297 10855 ft 315 kts 105°
2026-05-05 13:08 25.51837 102.96659 10821 ft 316 kts 105°
2026-05-05 13:09 25.51321 102.99020 10823 ft 316 kts 106°
2026-05-05 13:09 25.50803 103.01378 10831 ft 315 kts 105°
2026-05-05 13:09 25.50288 103.03724 10831 ft 313 kts 105°
2026-05-05 13:09 25.49775 103.06071 10825 ft 314 kts 105°
2026-05-05 13:10 25.49255 103.08415 10829 ft 313 kts 108°
2026-05-05 13:10 25.48329 103.10502 10824 ft 298 kts 132°
2026-05-05 13:10 25.47064 103.12237 10841 ft 282 kts 133°
2026-05-05 13:10 25.45869 103.13911 10843 ft 271 kts 133°
2026-05-05 13:11 25.44700 103.15533 10890 ft 271 kts 134°
2026-05-05 13:11 25.43287 103.16808 10785 ft 255 kts 165°
2026-05-05 13:11 25.41620 103.16945 10779 ft 235 kts 200°
2026-05-05 13:11 25.40128 103.16437 10817 ft 215 kts 202°
2026-05-05 13:12 25.38759 103.15941 10819 ft 201 kts 209°
2026-05-05 13:12 25.37519 103.15247 10820 ft 199 kts 216°
2026-05-05 13:12 25.36353 103.14422 10868 ft 199 kts 220°
2026-05-05 13:12 25.35239 103.13530 10825 ft 196 kts 221°
2026-05-05 13:13 25.34154 103.12614 10825 ft 197 kts 223°
2026-05-05 13:13 25.33075 103.11678 10844 ft 197 kts 223°
2026-05-05 13:13 25.31999 103.10740 10903 ft 197 kts 223°
2026-05-05 13:13 25.30923 103.09798 10855 ft 197 kts 223°
2026-05-05 13:14 25.29849 103.08859 10839 ft 197 kts 223°
2026-05-05 13:14 25.28770 103.07914 10722 ft 199 kts 223°
2026-05-05 13:14 25.27696 103.06972 10501 ft 196 kts 223°
2026-05-05 13:14 25.26639 103.06047 10275 ft 190 kts 223°
2026-05-05 13:15 25.25652 103.05183 10087 ft 171 kts 223°
2026-05-05 13:15 25.24768 103.04411 9875 ft 155 kts 224°
2026-05-05 13:15 25.23941 103.03685 9683 ft 151 kts 224°
2026-05-05 13:15 25.23120 103.02965 9491 ft 151 kts 223°
2026-05-05 13:16 25.22300 103.02247 9294 ft 151 kts 223°
2026-05-05 13:16 25.21472 103.01522 9096 ft 152 kts 223°
2026-05-05 13:16 25.20654 103.00807 8904 ft 152 kts 223°
2026-05-05 13:16 25.19821 103.00078 8712 ft 153 kts 223°
2026-05-05 13:17 25.18990 102.99351 8500 ft 152 kts 221°
2026-05-05 13:17 25.18156 102.98621 8315 ft 154 kts 220°
2026-05-05 13:17 25.17317 102.97887 8118 ft 154 kts 221°
2026-05-05 13:17 25.16479 102.97153 7923 ft 154 kts 219°
2026-05-05 13:18 25.15672 102.96450 7692 ft 155 kts 219°
2026-05-05 13:18 25.14815 102.95680 7420 ft 162 kts 220°
2026-05-05 13:18 25.13923 102.94918 7211 ft 164 kts 218°
2026-05-05 13:18 25.13005 102.94127 7014 ft 170 kts 218°
2026-05-05 13:19 25.12080 102.93321 6978 ft 168 kts 218°
2026-05-05 13:19 25.11185 102.92509 7532 ft 163 kts 221°
2026-05-05 13:19 25.10268 102.91729 7973 ft 172 kts 219°
2026-05-05 13:19 25.09325 102.90915 8546 ft 166 kts 221°
2026-05-05 13:20 25.08500 102.90007 8914 ft 175 kts 240°
2026-05-05 13:20 25.08018 102.88710 9157 ft 191 kts 256°
2026-05-05 13:20 25.07674 102.87239 9483 ft 205 kts 251°
2026-05-05 13:20 25.07042 102.85769 9722 ft 219 kts 244°
2026-05-05 13:21 25.06362 102.84307 10361 ft 211 kts 245°
2026-05-05 13:21 25.06055 102.82759 10684 ft 220 kts 275°
2026-05-05 13:21 25.06710 102.81145 10666 ft 241 kts 310°
2026-05-05 13:21 25.08163 102.80134 10740 ft 266 kts 339°
2026-05-05 13:22 25.10081 102.80113 10755 ft 292 kts 12°
2026-05-05 13:22 25.11879 102.81279 10770 ft 315 kts 43°
2026-05-05 13:22 25.13197 102.83289 10800 ft 334 kts 60°
2026-05-05 13:22 25.14164 102.85691 10809 ft 351 kts 66°
2026-05-05 13:23 25.15136 102.88221 10808 ft 359 kts 66°
2026-05-05 13:23 25.16096 102.90691 10864 ft 341 kts 65°
2026-05-05 13:23 25.17015 102.93033 10865 ft 325 kts 65°
2026-05-05 13:23 25.17899 102.95287 10869 ft 316 kts 65°
2026-05-05 13:24 25.18776 102.97512 10872 ft 316 kts 65°
2026-05-05 13:24 25.19651 102.99734 10868 ft 315 kts 65°
2026-05-05 13:24 25.20524 103.01951 10861 ft 315 kts 65°
2026-05-05 13:24 25.21396 103.04168 10844 ft 315 kts 65°
2026-05-05 13:25 25.22272 103.06395 10849 ft 315 kts 65°
2026-05-05 13:25 25.23146 103.08618 10841 ft 315 kts 65°
2026-05-05 13:25 25.24016 103.10832 10836 ft 314 kts 65°
2026-05-05 13:25 25.24874 103.13017 10814 ft 314 kts 65°
2026-05-05 13:26 25.25756 103.15267 10833 ft 315 kts 65°
2026-05-05 13:26 25.26625 103.17484 10804 ft 314 kts 65°
2026-05-05 13:26 25.27482 103.19671 10769 ft 314 kts 65°
2026-05-05 13:26 25.28362 103.21890 10805 ft 316 kts 62°
2026-05-05 13:27 25.29638 103.23788 10755 ft 298 kts 34°
2026-05-05 13:27 25.31373 103.24739 10822 ft 261 kts
2026-05-05 13:27 25.33047 103.24753 10779 ft 224 kts 339°
2026-05-05 13:27 25.34388 103.24091 10779 ft 205 kts 320°
2026-05-05 13:28 25.35515 103.23144 10775 ft 203 kts 314°
2026-05-05 13:28 25.36609 103.22149 10782 ft 204 kts 315°
2026-05-05 13:28 25.37684 103.21130 10770 ft 202 kts 309°
2026-05-05 13:28 25.38463 103.19891 10742 ft 194 kts 289°
2026-05-05 13:29 25.38719 103.18461 10779 ft 190 kts 265°
2026-05-05 13:29 25.37488 103.15978 10854 ft 195 kts 231°
2026-05-05 13:29 25.36538 103.14913 10838 ft 195 kts 227°
2026-05-05 13:30 25.35526 103.13912 10815 ft 196 kts 225°
2026-05-05 13:30 25.34480 103.12945 10824 ft 195 kts 224°
2026-05-05 13:30 25.33421 103.12001 10840 ft 196 kts 223°
2026-05-05 13:30 25.32352 103.11058 10832 ft 197 kts 223°
2026-05-05 13:31 25.31282 103.10118 10838 ft 197 kts 223°
2026-05-05 13:31 25.30212 103.09179 10843 ft 196 kts 223°
2026-05-05 13:31 25.29139 103.08237 10772 ft 199 kts 223°
2026-05-05 13:31 25.28078 103.07307 10551 ft 195 kts 223°
2026-05-05 13:32 25.27021 103.06381 10334 ft 194 kts 223°
2026-05-05 13:32 25.25973 103.05464 10110 ft 187 kts 223°
2026-05-05 13:32 25.25011 103.04623 9917 ft 167 kts 223°
2026-05-05 13:32 25.24148 103.03867 9724 ft 152 kts 224°
2026-05-05 13:33 25.23324 103.03144 9525 ft 151 kts 224°
2026-05-05 13:33 25.22497 103.02418 9329 ft 152 kts 223°
2026-05-05 13:33 25.21668 103.01695 9136 ft 152 kts 222°
2026-05-05 13:33 25.20843 103.00972 8927 ft 151 kts 223°
2026-05-05 13:34 25.20015 103.00247 8736 ft 153 kts 223°
2026-05-05 13:34 25.19180 102.99518 8545 ft 153 kts 222°
2026-05-05 13:34 25.18345 102.98785 8357 ft 154 kts 221°
2026-05-05 13:34 25.17504 102.98025 8117 ft 160 kts 221°
2026-05-05 13:35 25.16633 102.97272 7921 ft 158 kts 219°
2026-05-05 13:35 25.15772 102.96525 7784 ft 156 kts 220°
2026-05-05 13:35 25.14940 102.95799 7540 ft 155 kts 219°
2026-05-05 13:35 25.14093 102.95046 7252 ft 157 kts 217°
2026-05-05 13:36 25.13235 102.94309 7009 ft 156 kts 218°
2026-05-05 13:36 25.12402 102.93596 6909 ft 145 kts 219°
2026-05-05 13:36 25.11734 102.93010 6904 ft 92 kts 218°
2026-05-05 13:36 25.11374 102.92697 6922 ft 42 kts 218°
2026-05-05 13:37 25.11172 102.92520 6911 ft 36 kts 218°
2026-05-05 13:37 25.10988 102.92407 6913 ft 28 kts 198°
2026-05-05 13:37 25.10894 102.92383 6908 ft 0 kts 192°
2026-05-05 13:38 25.10881 102.92380 6924 ft 2 kts 192°
2026-05-05 13:38 25.10858 102.92376 6917 ft 5 kts 182°
2026-05-05 13:38 25.10811 102.92393 6922 ft 9 kts 144°
2026-05-05 13:39 25.10770 102.92445 6911 ft 9 kts 128°
2026-05-05 13:39 25.10729 102.92505 6914 ft 10 kts 127°
2026-05-05 13:39 25.10683 102.92566 6909 ft 11 kts 130°
2026-05-05 13:39 25.10630 102.92625 6918 ft 11 kts 147°
2026-05-05 13:40 25.10574 102.92658 6907 ft 8 kts 155°
2026-05-05 13:40 25.10521 102.92687 6918 ft 9 kts 154°
2026-05-05 13:40 25.10463 102.92718 6915 ft 10 kts 154°
2026-05-05 13:40 25.10399 102.92750 6912 ft 10 kts 156°
2026-05-05 13:41 25.10383 102.92812 6905 ft 9 kts 88°
2026-05-05 13:41 25.10384 102.92879 6904 ft 7 kts 89°
2026-05-05 13:41 25.10385 102.92906 6904 ft 1 kts 89°
2026-05-05 13:41 25.10385 102.92912 6904 ft 0 kts 89°